OpenBCM V1.08-3-g9b42 (Linux)

Packet Radio Mailbox

OK0NBR

[Sao_Jose_dos_Campo]

 Login: GUEST





  
I0OJJ  > KEPS     13.10.25 00:03l 314 Lines 14999 Bytes #160 (0) @ AMSAT
BID : ORB25286.1
Read: GUEST
Subj: 2Line Orbital Elements 25286.AMSAT
Path: OK0NBR<IW0QNL<HB9ON<DK0WUE<PI8ZTM<CX2SA<EA2RCF<I0OJJ
Sent: 251013/0021z @:I0OJJ.ITA.EU [Rome] obcm1.08-11-2-gbfe9
From: I0OJJ @ I0OJJ.ITA.EU (Gustavo)
To:   KEPS @ AMSAT
X-Info: This message was generated automatically


QST de W1STR

AMSAT Orbital Elements for Amateur Satellites in TLE Format
From Orbital Analysis Office
New England Sci-Tech STEM Education Center
Natick MA October 13, 2025
To all radio amateurs


These element sets describe the orbits of various satellites 
in use by the amateur radio community. For details see:
www.amsat.org/keplerian-elements-formats/

A daily update of element sets is available at:
www.amsat.org/tle/daily-bulletin.txt
or without bulletin text:
www.amsat.org/tle/dailytle.txt


AO-07
1 07530U 74089B   25285.61653638 -.00000045  00000-0  67699-5 0  9995
2 07530 101.9987 291.2324 0011923 243.3630 208.2497 12.53692330329495
UO-11
1 14781U 84021B   25285.61412109  .00002115  00000-0  22600-3 0  9994
2 14781  97.7714 249.6380 0006108 288.0136  72.0416 14.89828082220254
AO-27
1 22825U 93061C   25285.46217624  .00000169  00000-0  81478-4 0  9990
2 22825  98.7232 347.5586 0009498 105.7246 254.4985 14.30843719671578
FO-29
1 24278U 96046B   25285.62955057 -.00000023  00000-0  12298-4 0  9991
2 24278  98.5532 162.9494 0350335  18.6999 342.6647 13.53256588439681
NOAA-15
1 25338U 98030A   25285.61931429  .00000198  00000-0  99063-4 0  9997
2 25338  98.5290 307.7085 0010153 359.8401   0.2775 14.27034112425980
GO-32
1 25397U 98043D   25285.59259241  .00000135  00000-0  78421-4 0  9994
2 25397  98.9860 267.4089 0001157 158.1774 201.9453 14.24351148416087
ISS
1 25544U 98067A   25285.52660669  .00014292  00000-0  25905-3 0  9994
2 25544  51.6323  85.5258 0000779 253.5772 106.5131 15.49875855533363
NO-44
1 26931U 01043C   25285.40649072  .00000214  00000-0  11111-3 0  9998
2 26931  67.0504 165.0832 0007109 273.7088  86.3201 14.31803570254971
SO-50
1 27607U 02058C   25285.40780187  .00002188  00000-0  28223-3 0  9993
2 27607  64.5528 175.1064 0068205 308.1118  51.3850 14.82070163227725
CO-55
1 27844U 03031E   25285.60643071  .00000465  00000-0  22095-3 0  9997
2 27844  98.6788 292.2910 0009585 177.8413 182.2809 14.24102927156437
CO-57
1 27848U 03031J   25285.61378222  .00000378  00000-0  18586-3 0  9998
2 27848  98.6817 292.2085 0009115 195.8239 164.2656 14.23422347156151
RS-22
1 27939U 03042A   25285.64022900  .00001730  00000-0  27928-3 0  9996
2 27939  98.3379  98.2278 0010960 339.2237 109.9965 14.72707437179101
CO-58
1 28895U 05043F   25285.52355423  .00002897  00000-0  47441-3 0  9994
2 28895  98.2678  71.6015 0013321 271.1799  88.7881 14.71518714 65314
CO-65
1 32785U 08021C   25285.59745642  .00009544  00000-0  65921-3 0  9998
2 32785  97.8020 257.8950 0010793 139.3429 220.8605 15.05926869947880
CO-66
1 32791U 08021J   25285.50447427  .00024515  00000-0  10622-2 0  9998
2 32791  97.7413 268.6930 0006661  92.2816 267.9182 15.22363081949475
RS-30
1 32953U 08025A   25285.62726953  .00000019  00000-0  65320-4 0  9999
2 32953  82.5030 149.4353 0019604 130.0909 230.1893 12.43169323788938
NOAA-19
1 33591U 09005A   25285.64523142  .00000079  00000-0  66144-4 0  9995
2 33591  98.9845 350.9763 0013904  14.8240 345.3337 14.13417313859519
SRMSAT
1 37841U 11058D   25285.25225565  .00000480  00000-0  11705-3 0  9991
2 37841  19.9710 120.0779 0011753 356.4405 160.2757 14.11479418722742
ZACUBE-1
1 39417U 13066B   25285.63001544  .00010230  00000-0  85366-3 0  9992
2 39417  97.7953 242.1638 0042565 357.6145   2.4868 14.98055253643626
Delfi-N3xt
1 39428U 13066N   25285.34112618  .00013590  00000-0  13167-2 0  9998
2 39428  97.8288 201.6872 0079993 310.4415  48.9845 14.90416407637641
GOMX-1
1 39430U 13066Q   25285.64112779  .00003070  00000-0  47508-3 0  9991
2 39430  97.6676 136.5851 0131793 151.3859 209.4663 14.68195566633572
LO-74
1 39440U 13066AA  25285.62128894  .00005908  00000-0  58123-3 0  9992
2 39440  97.8606 229.4525 0062200 125.9789 234.7219 14.91020935640066
AO-73
1 39444U 13066AE  25285.62925107  .00014524  00000-0  10248-2 0  9997
2 39444  97.7984 248.2566 0038734 327.5955  32.2892 15.04451030642375
DTUSAT-2
1 40030U 14033W   25285.61245755  .00013132  00000-0  80520-3 0  9993
2 40030  98.0708 263.7256 0009040  12.7410 347.4044 15.10258658615256
EO-80
1 40032U 14033Y   25285.62595609  .00013479  00000-0  82471-3 0  9993
2 40032  98.0580 263.2206 0006354 308.4252  51.6405 15.10346735615237
LILACSAT-2
1 40908U 15049K   25285.60000186  .00019926  00000-0  46446-3 0  9997
2 40908  97.4996 309.1870 0010451  75.6583 284.5824 15.42233238557474
IO-86
1 40931U 15052B   25151.18580175  .00001241  00000-0  78118-4 0  9996
2 40931   6.0006  24.0987 0012733 338.8432  21.1169 14.78805930523159
Horyu-4
1 41340U 16012D   25285.33150805  .00049634  00000-0  10461-2 0  9999
2 41340  30.9968   9.4126 0003391 286.9716  73.0560 15.43978859532039
Lapan A3
1 41603U 16040E   25285.65728412  .00005400  00000-0  18328-3 0  9996
2 41603  97.1433 285.4648 0010920 171.6831 188.4594 15.30855550516917
CAS-2T
1 41847U 16066G   25285.43911571  .00002766  00000-0  39793-3 0  9991
2 41847  98.4093 358.7773 0345225 160.4737 201.0062 14.43871096469034
CAS-4B
1 42759U 17034B   25285.43218963  .01898259  36699-2  12155-2 0  9993
2 42759  42.9913 283.3188 0011745 111.5658 248.6479 16.17329134462307
CAS-4A
1 42761U 17034D   25281.34159269  .04203186  90411-5  12507-2 0  9993
2 42761  42.9927 303.5081 0008135  81.2710 278.9099 16.26032227461692
TechnoSat
1 42829U 17042E   25285.61426912  .00006761  00000-0  50933-3 0  9995
2 42829  97.3999  88.4982 0018079 218.4048 141.5891 15.02667686449490
AO-91
1 43017U 17073E   25285.39570698  .00013102  00000-0  63534-3 0  9993
2 43017  97.5013 153.0490 0167641 100.5079 261.5085 15.07019581427996
S-Net D
1 43186U 18014G   25285.27995493  .00009319  00000-0  52710-3 0  9996
2 43186  97.5478 186.9165 0009670 145.0461 215.1406 15.13248464421221
S-Net B
1 43187U 18014H   25285.28704953  .00009152  00000-0  51798-3 0  9997
2 43187  97.5479 186.9012 0010484 141.4298 218.7684 15.13224503421222
S-Net A
1 43188U 18014J   25285.27990030  .00009354  00000-0  52885-3 0  9992
2 43188  97.5490 187.0611 0010358 142.0794 218.1169 15.13253941421221
S-Net C
1 43189U 18014K   25285.28978731  .00008999  00000-0  50927-3 0  9997
2 43189  97.5507 187.1056 0012120 134.3706 225.8520 15.13217879419774
Ten-Koh
1 43677U 18084G   25285.60221691  .00003851  00000-0  30463-3 0  9993
2 43677  98.0738 102.8129 0008532 198.5909 161.5004 15.01244826378992
PO-101
1 43678U 18084H   25285.58243766  .00004290  00000-0  35942-3 0  9993
2 43678  98.1070 106.5829 0007333 217.3797 142.6916 14.98974482379103
QO-100
1 43700U 18090A   25285.63639375  .00000134  00000-0  00000-0 0  9994
2 43700   0.0217 112.7527 0002165 132.0301  31.5925  1.00273371 25191
MinXSS-2
1 43758U 18099A   25285.63686610  .00030621  00000-0  10360-2 0  9996
2 43758  97.4878 352.3370 0011599  78.5581 281.6961 15.30495567376064
AO-95
1 43770U 18099N   25285.60409026  .00016437  00000-0  76721-3 0  9994
2 43770  97.4770 342.4023 0011306 132.6090 227.6101 15.19853933375525
SNUSat 2
1 43782U 18099AA  25285.59745680  .00012955  00000-0  66261-3 0  9993
2 43782  97.4450 338.0895 0013081  82.7936 277.4784 15.16699516375439
SnugLite
1 43784U 18099AC  25285.40867688  .00016516  00000-0  76398-3 0  9997
2 43784  97.4263 337.7562 0004841  87.3635 272.8155 15.20210380375581
ITASat 1
1 43786U 18099AE  25285.09043853  .00010315  00000-0  55848-3 0  9992
2 43786  97.4421 336.7152 0015039 132.2404 228.0107 15.14717423375299
EAGLET 1
1 43790U 18099AJ  25285.56754863  .00007515  00000-0  46231-3 0  9993
2 43790  97.4613 336.6834 0013101 117.7733 242.4827 15.10238172374927
ESEO
1 43792U 18099AL  25285.37817529  .00002497  00000-0  18885-3 0  9991
2 43792  97.4347 328.0486 0014889  97.5954 262.6963 15.03134289374566
JO-97
1 43803U 18099AX  25285.15585141  .00018509  00000-0  76162-3 0  9995
2 43803  97.4515 343.2658 0008223  74.7048 285.5097 15.24158349375729
Suomi 100
1 43804U 18099AY  25285.58660322  .00017716  00000-0  79564-3 0  9996
2 43804  97.4575 342.5912 0012931  75.3613 284.9056 15.21147492375684
ISAT
1 43879U 18111D   25285.61252757  .00042490  00000-0  12036-2 0  9993
2 43879  97.5869 203.1603 0010887 107.6203 252.6230 15.36090731372844
UWE-4
1 43880U 18111E   25285.51235240  .00031065  00000-0  10515-2 0  9998
2 43880  97.5811 200.5461 0013144 121.8638 238.3884 15.30461744372706
Sparrow
1 43881U 18111F   25285.34986067  .00046241  00000-0  12406-2 0  9993
2 43881  97.6043 206.3053 0008268 130.7703 229.4260 15.37785933372917
Prox-1
1 44339U 19036A   25285.18394084  .00017375  00000-0  20579-2 0  9999
2 44339  23.9976 321.7281 0007253  62.2955 297.8278 14.82916467336510
Taurus 1
1 44530U 19059C   25285.64887829  .00011627  00000-0  20475-2 0  9991
2 44530  98.6210  71.2194 0008771   8.0998 352.0345 14.67705009322272
Duchifat 3
1 44854U 19089C   25285.35617167  .00177665  00000-0  17609-2 0  9997
2 44854  36.9357 274.1827 0008411 213.1910 146.8325 15.64278149322421
TO-108
1 44881U 19093C   25285.62656809  .00001424  00000-0  16933-3 0  9997
2 44881  97.7819 358.6125 0013801 175.2148 184.9202 14.85890289314647
FloripaSat 1
1 44885U 19093G   25285.63271537  .00009720  00000-0  78384-3 0  9998
2 44885  97.8090  13.5785 0010665 157.6985 202.4704 15.00056955315488
RS-44
1 44909U 19096E   25285.33026023  .00000005  00000-0 -21742-4 0  9998
2 44909  82.5204 144.4200 0217686   4.1697 356.1152 12.79744453270649
UPMSat 2
1 46276U 20061E   25284.11510829  .12115553  24945-5  13983-3 0  9991
2 46276  97.2106   5.1352 0012001 257.8540 102.1421 16.49625583285008
SALSAT
1 46495U 20068K   25285.59735381  .00012778  00000-0  51670-3 0  9994
2 46495  97.8750 269.6562 0013164  88.6940 271.5805 15.24797772277568
